Location: Izdebno
(52.6670°N, 16.2170°E)
Time: 18:07:34
(UTC+01:00)

Transit 2A - Pass Details

Date: 03 February 2023
Orbit: 591 x 964 km, 66.7° (Epoch: 21 March)

Event Time Altitude Azimuth Distance (km) Brightness Sun altitude
Rises 17:23:58 0° 210° (SSW) 3,014 9.9 -6.4°
Reaches altitude 10° 17:26:10 10° 209° (SSW) 2,153 9.1 -6.7°
Maximum altitude 17:31:03 73° 125° (SE) 790 6.0 -7.4°
Drops below altitude 10° 17:36:33 10° 42° (NE) 2,417 8.1 -8.2°
Enters shadow 17:37:43 - 41° (NE) 2,864 8.4 -8.4°
Sets 17:39:09 0° 41° (NE) 3,414 - -8.6°
